Observations for Trim Patrick St
| Time | AQI | Temp °C | Hum % | Pres Pa | CO μg/m³ | H₂S μg/m³ | NO μg/m³ | NO₂ μg/m³ | O₃ μg/m³ | SO₂ μg/m³ | PM1 μg/m³ | PM2.5 μg/m³ | PM10 μg/m³ |
|---|---|---|---|---|---|---|---|---|---|---|---|---|---|
| Friday 28 August 2026 | |||||||||||||
| 09:41 | 2 | 19.5 | 84 | 38,460 | 0.23 | 1.39 | 2.26 | 11.57 | 31.42 | 2.95 | 20.86 | 31.18 | 31.33 |
| 09:40 | 2 | 19.4 | 85 | 38,460 | 0.23 | 1.52 | 2.26 | 8.03 | 31.31 | 3.49 | 21.72 | 30.46 | 31.93 |
| 09:39 | 2 | 19.3 | 84 | 38,460 | 0.25 | 1.5 | 2.22 | 1.75 | 38.69 | 3.33 | 22.57 | 31.23 | 32.76 |
| 09:38 | 2 | 19.3 | 84 | 38,460 | 0.2 | 1.08 | 2.26 | 0 | 39.03 | 0.31 | 21.72 | 29.79 | 32.77 |
| 09:30 | 2 | 18.8 | 85 | 38,460 | 0.21 | 2.98 | 2.29 | 5.94 | 34.81 | 1.43 | 23.43 | 32.46 | 33.07 |
| 09:29 | 2 | 18.7 | 85 | 38,460 | 0.23 | 3.24 | 2.3 | 12.39 | 41.1 | 0.85 | 22.57 | 32.44 | 35.69 |
| 09:28 | 2 | 18.6 | 85 | 38,460 | 0.2 | 2.64 | 2.33 | 11.17 | 39.03 | 0.38 | 22.57 | 31.73 | 33.62 |
| 09:27 | 2 | 18.6 | 86 | 38,460 | 0.2 | 2.85 | 2.3 | 11.97 | 37.81 | 1.03 | 21.72 | 31.01 | 34.11 |
| 09:26 | 2 | 18.6 | 86 | 38,460 | 0.2 | 2.07 | 2.29 | 2.38 | 33.76 | 1.74 | 20.86 | 29.63 | 32.6 |
| 09:25 | 2 | 18.5 | 86 | 38,460 | 0.21 | 2.93 | 2.25 | 10.74 | 29.41 | 1.93 | 21.72 | 28.93 | 31.82 |
| 09:24 | 2 | 18.4 | 86 | 38,460 | 0.2 | 2.02 | 2.26 | 3.67 | 47.02 | 1.81 | 20.86 | 28.21 | 28.25 |
| 09:23 | 2 | 18.4 | 86 | 38,460 | 0.2 | 1.55 | 2.3 | 4.23 | 33.98 | 1.84 | 21.72 | 29.62 | 32.58 |
| 09:22 | 2 | 18.4 | 86 | 38,460 | 0.18 | 1 | 2.27 | 1.14 | 37.94 | 1.54 | 20 | 28.26 | 31.08 |
| 09:21 | 2 | 18.3 | 86 | 38,460 | 0.2 | 1.21 | 2.27 | 0.75 | 30.73 | 1.47 | 22.57 | 30.33 | 30.97 |
| 09:20 | 2 | 18.3 | 86 | 38,460 | 0.19 | 2.13 | 2.27 | 3.59 | 41.04 | 1.56 | 21.72 | 30.99 | 34.09 |
| 09:19 | 2 | 18.2 | 86 | 38,460 | 0.19 | 1.47 | 2.23 | 4.29 | 32.45 | 0.48 | 21.72 | 29.65 | 29.67 |
| 09:18 | 2 | 18.2 | 86 | 38,460 | 0.18 | 0.61 | 2.26 | 0.22 | 34.26 | 1.6 | 22.57 | 32.38 | 33.55 |
| 09:17 | 2 | 18.2 | 86 | 38,460 | 0.18 | 1.16 | 2.26 | 3.94 | 33.91 | 1.17 | 20.86 | 30.26 | 30.81 |
| 09:16 | 2 | 18.2 | 86 | 38,460 | 0.17 | 0.24 | 2.26 | 1.44 | 32.07 | 0.97 | 20.86 | 30.99 | 31.56 |
| 09:15 | 2 | 18.2 | 86 | 38,460 | 0.17 | 0.5 | 2.25 | 0.42 | 35.71 | 0.75 | 21.72 | 29.62 | 32.58 |